Hourly Data Report for October 08, 2016

All times are specified in Local Standard Time (LST). Add 1 hour to adjust for Daylight Saving Time where and when it is observed.

FREDERICTON
NEW BRUNSWICK

45°52'08.000" N
66°32'14.000" W
20.70 m
8101505
71700
YFC

Download Data

Hourly Data (October 2016)
Hourly Data Report for October 8, 2016
Temp Definition
°C
Dew Point Temp Definition
°C
Rel Hum Definition
%
Wind Dir Definition
10's deg

Wind Spd Definition
km/h
Visibility Definition
km
Stn Press Definition
kPa
Hmdx Definition


Wind Chill Definition


Weather Definition


TIME
00:00 Legend Double Dagger 8.5 8.1 97 21 5 16.1 102.04     LegendNANA
01:00 Legend Double Dagger 7.7 7.4 98 21 8 16.1 101.99     LegendNANA
02:00 Legend Double Dagger 6.5 6.2 98 20 5 14.5 101.92     LegendNANA
03:00 Legend Double Dagger 6.1 5.8 98   0 14.5 101.87     LegendNANA
04:00 Legend Double Dagger 4.4 4.1 98   0 11.3 101.87     LegendNANA
05:00 Legend Double Dagger 3.7 3.6 99 32 4 11.3 101.88     LegendNANA
06:00 Legend Double Dagger 2.8 2.7 99 24 4 4.8 101.90     Fog
07:00 Legend Double Dagger 1.8 1.8 100 22 8 0.2 101.94     Fog
08:00 Legend Double Dagger 5.7 5.6 99 20 5 16.1 101.89     LegendNANA
09:00 Legend Double Dagger 10.5 9.4 93   0 16.1 101.89     LegendNANA
10:00 Legend Double Dagger 15.6 11.6 77 19 9 16.1 101.85     LegendNANA
11:00 Legend Double Dagger 19.6 12.7 64 21 17 16.1 101.78     LegendNANA
12:00 Legend Double Dagger 20.9 11.2 54 21 32 16.1 101.73     LegendNANA
13:00 Legend Double Dagger 21.5 10.3 49 21 30 16.1 101.63     LegendNANA
14:00 Legend Double Dagger 21.2 10.4 50 18 28 16.1 101.51     LegendNANA
15:00 Legend Double Dagger 20.2 10.5 53 18 24 16.1 101.49     LegendNANA
16:00 Legend Double Dagger 19.0 10.2 56 20 24 16.1 101.49     LegendNANA
17:00 Legend Double Dagger 17.9 10.9 63 18 13 16.1 101.45     LegendNANA
18:00 Legend Double Dagger 16.2 11.0 71 18 13 16.1 101.41     LegendNANA
19:00 Legend Double Dagger 15.0 11.1 77 18 17 16.1 101.37     LegendNANA
20:00 Legend Double Dagger 13.7 10.7 82 18 11 16.1 101.38     LegendNANA
21:00 Legend Double Dagger 13.5 10.7 83 18 11 16.1 101.35     LegendNANA
22:00 Legend Double Dagger 13.5 11.4 87 16 11 16.1 101.35     LegendNANA
23:00 Legend Double Dagger 13.7 12.1 90 18 15 16.1 101.28     LegendNANA

Notes on Data Quality.

Legend

  • E = Estimated
  • M = Missing
  • NA = Not Available
  • ‡ = Partner data that is not subject to review by the National Climate Archives
Date modified: